Location: Cairns City
(16.9233°S, 145.7733°E)
Time: 11:53:36
(UTC+10:00)

OTV 5 (USA 277) - Visible Passes

Search period start: 26 February 2018 00:00
Search period end: 08 March 2018 00:00
Orbit: 404 x 417 km, 43.0° (Epoch: 07 September)

Date Brightness Start Highest point End Pass type
(mag) Time Alt. Az. Time Alt. Az. Time Alt. Az.
01 Mar ? 20:13:28 10° S 20:13:33 10° S 20:13:33 10° S visible
03 Mar ? 20:07:08 10° SSW 20:09:23 31° S 20:09:23 31° S visible
04 Mar ? 19:16:32 10° SSW 19:19:14 21° SE 19:21:05 14° E visible
04 Mar ? 20:53:44 10° W 20:53:52 11° W 20:53:52 11° W visible
05 Mar ? 20:02:12 10° WSW 20:05:27 45° NW 20:05:42 44° NNW visible
06 Mar ? 19:11:02 10° SW 19:14:26 83° SE 19:17:39 11° NE visible
07 Mar ? 19:59:11 10° WNW 20:00:26 12° NW 20:01:42 10° NNW visible
